Location: Faubourg Saint-Jacques
(47.5080°N, 4.5252°E)
Time: 12:38:50
(UTC+00:00)

Daily predictions for brighter satellites

Satellite Brightness Start Highest point End
(mag) Time Altitude Azimuth Time Altitude Azimuth Time Altitude Azimuth
Cosmos 972 Rocket 3.9 19:28:18 10° NNW 19:33:22 71° ENE 19:38:13 10° SSE
Cosmos 1441 Rocket 4.1 19:34:59 10° SSE 19:38:15 28° E 19:41:31 10° NNE
Cosmos 1900 4.3 19:39:56 10° SSW 19:44:48 64° ESE 19:49:47 10° NE
MONITOR-E 3.9 19:45:40 10° S 19:48:01 63° W 19:50:24 10° NNW
USA 267 3.5 19:42:24 10° ENE 19:48:44 49° SE 19:55:02 10° SSW
IRIDIUM 103 4.5 19:44:58 10° SSE 19:50:03 56° E 19:55:10 10° NNE
Cosmos 1821 Rocket 4.2 19:46:21 10° SSE 19:52:12 49° E 19:58:10 10° NNE
Shenzhou-11 Module 2.7 19:51:53 10° WSW 19:53:55 25° S 19:55:30 13° SE
COSMOS 2406 3.3 19:48:22 10° S 19:53:58 56° ESE 19:59:35 10° NE
Cosmos 1743 Rocket 3.9 19:50:49 10° SSW 19:55:14 73° W 19:59:45 10° N
Cosmos 2366 rocket 4.4 19:49:53 10° SSW 19:56:07 70° W 20:02:19 10° N
CZ-2C R/B 3.7 19:51:48 10° NNE 19:56:26 65° ESE 20:00:57 10° S
SL-16 R/B 4.3 19:53:43 10° N 19:56:58 15° NE 20:00:14 10° ENE
Intercosmos 25 3.6 19:53:24 10° N 19:58:00 54° ENE 20:01:20 10° SSE
Lacrosse 5 3.4 19:55:26 10° NW 19:59:55 30° N 20:04:24 10° ENE
ERS-1 Rocket 4.4 19:56:15 10° ESE 20:00:03 22° ENE 20:03:52 10° N
Cosmos 2369 4.0 19:57:16 10° NNW 20:02:56 56° ENE 20:08:05 12° SE
Cosmos 1862 3.3 19:59:27 10° S 20:03:28 76° E 20:07:32 10° NNE
Sich 1 3.3 20:00:08 10° SSE 20:04:24 50° E 20:08:43 10° NNE
SJ-6B 4.5 20:02:04 10° SSW 20:05:49 35° W 20:09:32 10° NNW
Meteor 2-6 Rocket 4.4 20:01:36 10° NNW 20:07:05 75° W 20:12:42 10° S
Cosmos 1818 3.6 20:02:03 10° NW 20:07:33 80° NE 20:12:24 13° SE
BREEZE-M DEB (TANK) 2.3 20:04:13 10° W 20:07:49 64° N 20:09:46 10° ENE
IRIDIUM 106 4.3 20:03:07 10° S 20:08:20 80° E 20:13:35 10° N
Cosmos 2082 Rocket 2.9 20:04:17 10° SSE 20:09:14 32° ESE 20:14:13 10° NE
Cosmos 2278 4.3 20:06:39 10° NNW 20:12:09 46° NE 20:16:44 15° SE
Cosmos 2123 Rocket 4.4 20:06:42 10° N 20:12:42 48° ENE 20:18:06 13° SSE
Spot 2 Rocket 3.9 20:11:25 13° SE 20:15:47 49° ENE 20:20:43 10° N
Cosmos 1000 Rocket 4.5 20:09:57 10° N 20:16:15 80° E 20:22:28 10° SSE
Resurs 1-3 4.3 20:15:13 10° S 20:19:29 52° W 20:23:49 10° NNW
Cosmos 2322 Rocket 4.2 20:15:53 10° N 20:19:37 17° NE 20:23:21 10° E
Meteor 1-4 Rocket 3.1 20:17:06 10° N 20:20:25 39° ENE 20:22:27 19° SE
Cosmos 2239 Rocket 4.4 20:15:24 10° S 20:21:29 70° E 20:27:36 10° NNE
Cosmos 1190 Rocket 4.2 20:16:57 10° S 20:22:01 49° ESE 20:27:07 10° NNE
Cosmos 1184 Rocket 4.1 20:21:02 19° ESE 20:22:02 22° E 20:24:40 10° NE
Terra 3.4 20:21:08 13° ESE 20:23:57 22° ENE 20:27:34 10° NNE
CZ-2C R/B 3.6 20:19:07 10° N 20:24:06 49° WNW 20:29:05 10° SW
USA 234 3.4 20:18:46 13° ESE 20:24:41 74° NNE 20:31:13 10° NW
Cosmos 407 Rocket 3.5 20:19:39 10° S 20:24:55 63° ESE 20:30:09 10° NNE
Cosmos 1666 Rocket 3.6 20:21:47 10° S 20:26:00 56° E 20:30:14 10° NNE
Cosmos 1238 Rocket 4.0 20:28:02 16° E 20:28:02 16° E 20:29:57 10° NE
MetOp-B 4.1 20:25:44 12° SSE 20:30:44 86° ENE 20:36:09 10° NNW
Meteor 1-27 Rocket 3.9 20:25:16 10° NNW 20:31:13 89° E 20:36:53 11° S
Cosmos 2360 Rocket 4.4 20:30:37 10° N 20:33:31 14° NE 20:36:24 10° ENE
ERBS 4.5 20:34:05 10° W 20:37:00 27° NNW 20:39:55 10° NE
BREEZE-M DEB (TANK) 3.9 20:33:44 10° W 20:37:03 18° WSW 20:39:00 11° SSW
USA 238 DEB 4.2 20:31:55 10° S 20:37:44 34° ESE 20:43:46 10° NE
Cosmos 1805 Rocket 4.3 20:33:26 10° SSW 20:37:47 56° WNW 20:42:11 10° N
USA 238 4.2 20:32:03 10° S 20:37:51 34° ESE 20:43:51 10° NE
SPOT 5 3.5 20:35:54 20° ESE 20:38:08 34° ENE 20:42:04 10° N
Cosmos 1980 Rocket 2.3 20:37:44 10° NNW 20:43:26 68° ENE 20:47:05 22° SE
SPOT 1/Viking Rocket 3.6 20:39:53 19° SSE 20:43:38 70° ENE 20:48:51 10° N
SL-4 R/B 1.8 20:43:44 10° SW 20:47:36 55° SSE 20:51:12 10° ENE
BREEZE-M DEB (TANK) 2.6 20:45:53 10° W 20:48:36 75° N 20:55:44 10° E
Genesis I 3.3 20:45:07 10° NNW 20:48:59 62° NE 20:50:44 30° ESE
Cosmos 405 Rocket 3.6 20:49:21 26° ESE 20:49:47 27° E 20:52:57 10° NNE
Cosmos 1140 Rocket 3.4 20:45:19 10° SSW 20:50:34 81° ESE 20:55:51 10° NNE
ATLAS 5 CENTAUR R/B 3.5 20:46:37 10° NW 20:51:55 36° WSW 20:57:17 12° S
Cosmos 1023 Rocket 4.5 20:49:48 10° SSW 20:55:05 89° ESE 21:00:24 10° NNE
USA 32 4.0 20:53:02 19° S 20:56:44 66° E 21:01:56 10° N
Cosmos 1697 Rocket 3.2 20:53:37 10° NW 20:59:05 53° WSW 21:03:04 18° S
Cosmos 1633 Rocket 3.1 20:55:05 11° SSW 20:59:17 80° W 21:03:44 10° N
Cosmos 1833 Rocket 3.0 20:54:10 10° SW 20:59:45 69° WNW 21:05:24 10° NNE
Cosmos 1867 3.5 21:00:45 10° SSW 21:06:07 65° ESE 21:11:32 10° NE
CENTAUR R/B 3.2 21:04:46 27° SE 21:06:21 30° ESE 21:12:08 10° NE
Meteor 1-18 Rocket 4.4 21:01:41 10° N 21:07:13 56° ENE 21:09:50 30° SE
Okean 1-7 3.9 21:03:25 10° N 21:07:24 34° ENE 21:08:30 30° ESE
Resurs 01 Rocket 3.5 21:06:02 10° SSW 21:09:42 25° W 21:13:23 10° NW
Landsat 7 4.4 21:09:00 19° S 21:12:15 53° W 21:16:56 10° NNW
FALCON 9 DEB 3.0 21:09:49 10° SW 21:13:18 68° SSE 21:15:22 22° ENE
Meteor 2-4 Rocket 4.4 21:11:29 10° N 21:16:48 38° ENE 21:18:53 28° ESE
deb Kosmos-1763 4.2 21:14:16 17° SSW 21:16:56 70° WNW 21:20:35 10° NNE
Cosmos 1515 4.2 21:14:11 10° N 21:17:52 42° ENE 21:18:22 40° E
Cosmos 676 Rocket 4.0 21:14:08 10° SSW 21:19:27 89° ESE 21:24:51 10° NNE
Cosmos 192 4.4 21:15:55 10° NNW 21:20:49 73° WSW 21:22:57 34° S
ATLAS 5 CENTAUR R/B 3.3 21:18:43 10° NNW 21:21:02 26° NE 21:23:25 17° E
Meteor 1-25 Rocket 4.1 21:17:53 21° S 21:21:44 85° E 21:27:22 10° NNE
Cosmos 1470 Rocket 3.6 21:19:31 26° SSW 21:22:00 82° W 21:26:25 10° N
GP-B 4.0 21:23:21 10° N 21:27:38 47° W 21:30:41 18° SSW
USA 267 3.6 21:25:26 10° NE 21:31:55 66° NNW 21:38:23 10° WSW
NOSS 3-2 (A) 3.3 21:26:28 10° SSW 21:32:07 73° SE 21:38:38 10° NE
Cosmos 921 Rocket 3.0 21:29:33 10° NNW 21:33:47 70° WSW 21:34:51 47° S
NOSS 3-2 (C) 3.5 21:35:51 34° S 21:38:06 51° ESE 21:44:19 10° NE
ERS-1 Rocket 3.4 21:36:08 30° SSW 21:38:28 58° W 21:43:26 10° NNW
Cosmos 841 Rocket 4.2 21:35:27 10° N 21:40:24 42° ENE 21:42:00 33° E
SAR-Lupe-2 4.0 21:37:25 10° N 21:40:57 61° WNW 21:41:56 42° SW
Cosmos 540 Rocket 4.2 21:36:56 10° N 21:41:51 41° ENE 21:43:22 33° E
SL-16 R/B 2.4 21:36:40 10° NNW 21:42:19 61° ENE 21:44:17 39° ESE
Lacrosse 5 2.1 21:38:34 10° NW 21:43:38 65° NNE 21:45:31 37° E
Cosmos 468 Rocket 3.9 21:38:47 10° NNW 21:44:08 89° ENE 21:45:45 46° SSE
Cosmos 1741 Rocket 4.0 21:48:23 47° SSE 21:49:40 63° ESE 21:54:53 10° NNE
Cosmos 1570 Rocket 4.4 21:46:32 10° NNW 21:51:46 53° ENE 21:53:10 41° ESE
Cosmos 2219 Rocket 4.3 21:48:57 10° N 21:52:52 19° NE 21:56:38 10° E
Cosmos 2082 Rocket 3.2 21:47:39 10° SW 21:53:09 47° NW 21:58:37 10° NNE
Terra 2.3 22:00:01 40° SSW 22:01:21 53° W 22:06:02 10° NNW
Cosmos 2322 Rocket 2.2 21:58:59 10° NNW 22:04:42 74° ENE 22:06:13 50° SE
Okean 1 4.4 22:02:38 10° NNW 22:06:22 37° W 22:07:06 34° WSW
Cosmos 1238 Rocket 4.4 22:06:54 19° W 22:07:26 20° WNW 22:09:45 10° NNW
Cosmos 2100 Rocket 3.9 22:05:35 43° S 22:07:44 83° E 22:13:54 10° N
USA 234 3.9 22:06:06 34° S 22:07:59 41° SW 22:14:07 10° WNW
Meteor 1-11 Rocket 4.1 22:09:09 44° ESE 22:09:49 46° E 22:15:15 10° NNE
Cosmos 1437 Rocket 3.3 22:07:07 10° NNW 22:10:47 47° W 22:10:50 47° W
Cosmos 1242 Rocket 4.3 22:09:45 10° NNE 22:12:07 23° NE 22:12:07 23° NE
Cosmos 1869 Rocket 3.4 22:13:01 75° SSW 22:13:23 85° W 22:17:52 10° N
SPOT 5 4.2 22:15:08 23° WSW 22:16:18 26° W 22:19:58 10° NW
Cosmos 2360 Rocket 2.6 22:13:18 10° NNW 22:18:53 54° ENE 22:20:19 43° ESE
COSMOS 2428 4.5 22:14:56 10° N 22:19:33 24° NE 22:22:36 16° E
ATLAS 3B R/B 3.0 22:21:12 40° ESE 22:21:12 40° ESE 22:27:17 10° NE
Geosat 3.9 22:20:48 66° SSE 22:21:33 88° SW 22:26:37 10° NNW
Iridium 4 Rocket 3.0 22:21:45 73° WSW 22:21:59 76° W 22:26:14 10° N
Cosmos 2173 Rocket 3.9 22:21:11 44° SSW 22:23:19 82° W 22:29:29 10° N
Cosmos 1500 3.6 22:25:10 58° NW 22:25:10 58° NW 22:28:31 10° N
CRYOSAT 2 4.3 22:21:41 10° N 22:26:35 67° E 22:26:46 66° ESE
Cosmos 1980 Rocket 4.0 22:22:45 10° NW 22:26:52 21° W 22:28:51 17° SW
SL-4 R/B 2.5 22:23:34 10° W 22:27:13 50° NNW 22:27:13 50° NNW
ALOS 2 3.5 22:27:44 37° ENE 22:27:48 37° ENE 22:31:51 10° N
USA 238 DEB 4.1 22:21:43 10° SW 22:28:19 62° NW 22:35:14 10° NE
USA 238 4.1 22:21:50 10° SW 22:28:25 62° NW 22:35:20 10° NE
Cosmos 1725 Rocket 4.1 22:27:19 52° SE 22:28:38 64° E 22:34:53 10° NNE
Cosmos 1763 Rocket 4.1 22:25:12 10° NNW 22:30:15 44° WSW 22:31:09 41° SW
SL-08 R/B 4.4 22:32:19 57° SSE 22:33:28 71° E 22:39:32 10° NNE
Cosmos 1674 Rocket 4.3 22:29:24 10° N 22:33:13 41° ENE 22:33:13 41° ENE
Cosmos 1536 3.6 22:34:39 45° NE 22:34:39 45° NE 22:37:39 10° NNE
Cosmos 1666 3.5 22:37:32 45° NNE 22:37:32 45° NNE 22:40:15 10° NNE
Cosmos 2333 Rocket 3.3 22:33:58 10° NNW 22:39:17 36° NE 22:41:19 28° E
Cosmos 1271 Rocket 4.4 22:38:14 10° N 22:40:47 25° NE 22:40:47 25° NE
Cosmos 2016 Rocket 3.9 22:39:51 53° S 22:41:31 87° W 22:47:57 10° N
Meteor 1-5 Rocket 4.5 22:40:38 46° SW 22:42:26 70° WNW 22:48:24 10° N
Meteor 1-13 Rocket 4.1 22:37:02 10° NNW 22:42:35 73° W 22:43:23 62° SSW
Cosmos 2061 Rocket 3.9 22:41:23 54° SSW 22:42:55 86° W 22:49:11 10° N
Lacrosse 4 Rocket 3.5 22:45:23 17° ENE 22:45:23 17° ENE 22:46:44 10° NE
Cosmos 1459 Rocket 4.4 22:42:35 37° SW 22:45:02 59° WNW 22:51:20 10° N
MOS 1-B Rocket 3.8 22:39:37 10° NNE 22:45:21 78° WNW 22:46:44 53° SW
Cosmos 2221 Rocket 3.7 22:42:12 10° NNW 22:46:29 67° W 22:46:29 67° W
Cosmos 1733 Rocket 3.3 22:50:59 65° NE 22:50:59 65° NE 22:54:51 10° NNE
Okean 3 4.2 22:46:36 10° NNW 22:50:30 47° W 22:50:30 47° W
SL-27 R/B 4.2 22:53:08 29° NW 22:53:08 29° NW 22:55:31 10° N
Cosmos 1066 Rocket 4.1 22:47:21 10° N 22:53:07 82° ENE 22:53:46 70° SE
Cosmos 1864 Rocket 4.4 22:53:23 57° SSW 22:54:45 83° W 23:01:02 10° N
Meteor 1-23 Rocket 4.1 22:49:04 10° N 22:54:56 82° ENE 22:55:42 68° SSE
CENTAUR R/B 2.9 22:51:50 18° WSW 22:56:27 64° NW 23:03:40 10° NE
Thor Agena Rocket 3.4 22:51:29 10° NNE 22:56:35 83° WNW 22:57:00 75° SW
Cosmos 968 Rocket 4.4 22:59:01 34° E 22:59:01 34° E 23:02:52 10° NE
Cosmos 967 Rocket 4.4 22:53:50 10° NW 23:00:11 70° WSW 23:01:03 62° SSW
Cosmos 1802 Rocket 4.5 22:58:41 38° SW 23:00:56 56° WNW 23:07:13 10° N
Cosmos 44 3.7 22:57:07 10° NW 23:01:33 55° WSW 23:01:33 55° WSW
Spot 4 4.3 23:06:33 50° W 23:06:33 50° W 23:11:11 10° NNW
Cosmos 1378 4.3 23:09:56 10° N 23:12:29 41° N 23:12:29 41° N
Cosmos 2233 Rocket 3.9 23:14:31 64° S 23:15:36 89° W 23:21:59 10° N
Cosmos 1908 Rocket 4.2 23:18:33 48° NE 23:18:33 48° NE 23:22:00 10° NNE
SL-16 R/B 3.7 23:21:34 10° NW 23:25:57 23° WSW 23:26:09 23° WSW
Lacrosse 5 3.4 23:21:54 10° WNW 23:24:41 25° W 23:24:41 25° W
Cosmos 2322 3.5 23:23:31 10° NNW 23:29:13 86° WSW 23:29:31 80° S
Cosmos 1833 4.1 23:28:44 70° WSW 23:29:21 80° WNW 23:35:03 10° NNE
Cosmos 1378 Rocket 4.0 23:25:02 10° NNW 23:28:49 57° NW 23:28:49 57° NW
COSMOS 2487 4.4 23:32:14 29° N 23:32:14 29° N 23:34:05 10° NNE
Cosmos 2219 Rocket 2.1 23:32:04 10° NNW 23:37:47 79° ENE 23:38:19 71° ESE
Cosmos 1975 Rocket 3.6 23:38:27 10° N 23:42:25 55° NE 23:42:25 55° NE
Cosmos 2333 4.2 23:37:51 10° NNW 23:43:37 68° WSW 23:43:44 68° WSW
Cosmos 1503 Rocket 4.2 23:45:55 62° E 23:45:55 62° E 23:51:02 10° NNE
Cosmos 1072 Rocket 4.4 23:46:51 63° SE 23:47:32 69° E 23:53:37 10° NNE
YAOGAN 11 4.4 23:48:26 72° N 23:48:26 72° N 23:52:36 10° NNW
Cosmos 2322 Rocket 3.9 23:44:12 10° NW 23:48:01 19° W 23:48:01 19° W
Helios 1A 3.6 23:49:48 54° NNW 23:49:48 54° NNW 23:53:09 10° NNW
SL-16 R/B 4.3 23:46:16 12° ESE 23:50:37 24° ENE 23:55:29 10° N
Cosmos 1486 Rocket 4.0 23:52:11 69° W 23:52:24 70° WNW 23:57:36 10° NNE
SL-16 R/B 4.4 23:49:05 10° N 23:53:18 21° NE 23:57:30 10° E
CZ-2D R/B 4.3 23:51:05 10° ENE 23:53:45 14° E 23:54:54 13° E
Sich 1 Rocket 4.4 23:55:31 44° ENE 23:55:31 44° ENE 23:59:01 10° NNE
